DELTA 1 DEB, 7164

Orbit data source: Space-Track

DELTA 1 DEB, 7164 is space debris in SSO originally from a launch on Tue, 06 Nov 1973 UTC launched from the Air Force Western Test Range (AFWTR). Debris objects in space refer to the collection of defunct objects orbiting the Earth. Examples of debris include non-operational satellites, rocket bodies, and fragments generated from explosions, collisions, or faulty payload assembly.

Loading next visibility...
Identifier
7164, 1973-086EC
Orbit
SSO
Country
Flag of USUS
Related business
Manufacturer
Unknown
Mission
Spacecraft
Bus & Motor
Unknown
Mass
Unknown
Launch date (UTC)
1973-11-06 (53 years ago)
Launch vehicle
Unknown
Launch site
Air Force Western Test Range (AFWTR)
Object type
Payload
Rocket body
Debris
Shape & HBR
Unknown shape, 0.3 m
Radar Cross Section
Medium (>0.1 m² and <1 m²)

Expand to show TLE details & history
Last TLE update: 18 hours ago

TLE from 18 hours ago
0 DELTA 1 DEB
1  7164U 73086EC  26209.01781564  .00000297  00000-0  15451-2 0  9999
2  7164 101.0645 238.4256 0090579 142.0132 248.6230 12.76401615443964
Epoch: 2026-07-28T00:25Z
TLE epoch observation values (Epoch: 2026-07-28T00:25:39.271Z)
Latitude
29.11435°
Longitude
-79.90224°
Altitude
1,385.438 km
Speed
7.157 km/s
True Right ascension
15h 28m 49s
True Declination
28° 58' 49"
Sunlit
Object was in daylight at epoch
Visualization orbit readout
Latitude
Unknown
Longitude
Unknown
Altitude
Unknown
Speed
Unknown
Apparent Right ascension
Unknown
Apparent Declination
Unknown
Sunlit
N/A
Visualization observer readout
Local Sidereal Time
07:34:14
Azimuth
Unknown
Elevation
Unknown
Doppler factor
Unknown
Orbital elements
Apogee altitude
1,423.476 km
Perigee altitude
1,283.412 km
Semi-major axis
7,731.581 km
Eccentricity
0.00906
Inclination
101.0645°
RAAN
238.4256°
Arg. of periapsis
142.0132°
True anomaly
247.66047°
Mean anomaly
248.623°
Eccentric anomaly
248.14133°
Mean motion
3.19257 °/min
Orbital period
112.76 mins
BSTAR
0.0015451
Loading maneuver chart data...
Computing Atmospheric mass density...
Loading historical data...
Loading historical data...
Loading historical data...
Loading historical data...
Loading historical data...
Loading historical data...
Loading historical data...

Documentation

Showing up to 5 results
|